| time (UTC) | temp F | wind direction | speed MPH | gust MPH | rain 1hr in | rain 24hr in | rain mn in | humidity % | barometer mb |
| 20260503214449 | 63 | 294 | 4.0 | 11.0 | 0.00 | 0.00 | 0.00 | 2 | 1011.9 |
| 20260503212949 | 61 | 258 | 2.0 | 9.0 | 0.00 | 0.00 | 0.00 | 2 | 1011.9 |
| 20260503211448 | 63 | 353 | 3.0 | 9.0 | 0.00 | 0.00 | 0.00 | 2 | 1011.7 |
| 20260503205950 | 60 | 221 | 4.0 | 7.0 | 0.00 | 0.00 | 0.00 | 2 | 1011.9 |
| 20260503204451 | 60 | 249 | 5.0 | 8.0 | 0.00 | 0.00 | 0.00 | 2 | 1011.7 |
| 20260503202948 | 63 | 315 | 1.0 | 8.0 | 0.00 | 0.00 | 0.00 | 2 | 1011.9 |
| 20260503201448 | 62 | 275 | 4.0 | 11.0 | 0.00 | 0.00 | 0.00 | 2 | 1011.9 |
| 20260503195948 | 63 | 227 | 3.0 | 6.0 | 0.00 | 0.00 | 0.00 | 2 | 1011.9 |
| 20260503194448 | 62 | 202 | 2.0 | 11.0 | 0.00 | 0.00 | 0.00 | 2 | 1012.1 |
| 20260503191449 | 60 | 204 | 1.0 | 4.0 | 0.00 | 0.00 | 0.00 | 3 | 1012.2 |
| 20260503185948 | 60 | 225 | 0.0 | 3.0 | 0.00 | 0.00 | 0.00 | 3 | 1012.4 |
| 20260503184448 | 57 | 285 | 2.0 | 7.0 | 0.00 | 0.00 | 0.00 | 3 | 1012.8 |
| 20260503182948 | 58 | 285 | 5.0 | 13.0 | 0.00 | 0.00 | 0.00 | 3 | 1012.9 |
| 20260503181449 | 55 | 300 | 1.0 | 9.0 | 0.00 | 0.00 | 0.00 | 3 | 1013.0 |
| 20260503175948 | 57 | 277 | 1.0 | 10.0 | 0.00 | 0.00 | 0.00 | 3 | 1013.0 |
| 20260503174448 | 56 | 0 | 0.0 | 0.0 | 0.00 | 0.00 | 0.00 | 3 | 1013.2 |
| 20260503172950 | 57 | 339 | 1.0 | 7.0 | 0.00 | 0.00 | 0.00 | 3 | 1013.1 |
| 20260503171449 | 55 | 6 | 4.0 | 11.0 | 0.00 | 0.00 | 0.00 | 3 | 1013.2 |
| 20260503090320 | 45 | 0 | 0.0 | 0.0 | 0.00 | 0.00 | 0.00 | 5 | 1011.3 |
| 20260503081450 | 46 | 0 | 0.0 | 2.0 | 0.00 | 0.00 | 0.00 | 5 | 1011.3 |
| 20260503080327 | 47 | 0 | 0.0 | 0.0 | 0.00 | 0.00 | 0.00 | 5 | 1011.3 |
| 20260503071450 | 47 | 270 | 0.0 | 2.0 | 0.00 | 0.00 | 0.00 | 4 | 1011.2 |
| 20260503070230 | 48 | 0 | 0.0 | 0.0 | 0.00 | 0.00 | 0.00 | 4 | 1011.2 |
| 20260503054449 | 50 | 0 | 0.0 | 0.0 | 0.00 | 0.00 | 0.00 | 4 | 1011.4 |
| 20260503052948 | 50 | 0 | 0.0 | 0.0 | 0.00 | 0.00 | 0.00 | 4 | 1011.5 |
| 20260503051448 | 50 | 0 | 0.0 | 0.0 | 0.00 | 0.00 | 0.00 | 4 | 1011.8 |
| 20260503044448 | 51 | 0 | 0.0 | 0.0 | 0.00 | 0.00 | 0.00 | 4 | 1012.1 |
| 20260503035948 | 51 | 0 | 0.0 | 0.0 | 0.00 | 0.00 | 0.00 | 4 | 1012.1 |
| 20260503034449 | 52 | 0 | 0.0 | 0.0 | 0.00 | 0.00 | 0.00 | 4 | 1012.0 |
| 20260503031448 | 52 | 0 | 0.0 | 0.0 | 0.00 | 0.00 | 0.00 | 4 | 1011.9 |
| 20260503025949 | 53 | 0 | 0.0 | 0.0 | 0.00 | 0.00 | 0.00 | 4 | 1011.9 |
| 20260503024448 | 53 | 0 | 0.0 | 0.0 | 0.00 | 0.00 | 0.00 | 4 | 1011.9 |
| 20260503023451 | 52 | 0 | 0.0 | 0.0 | 0.00 | 0.00 | 0.00 | 4 | 1011.9 |
| 20260503022948 | 52 | 0 | 0.0 | 0.0 | 0.00 | 0.00 | 0.00 | 4 | 1011.9 |
| 20260503021448 | 53 | 0 | 0.0 | 0.0 | 0.00 | 0.00 | 0.00 | 4 | 1011.8 |
| 20260503015948 | 54 | 0 | 0.0 | 0.0 | 0.00 | 0.00 | 0.00 | 4 | 1011.9 |
| 20260503014448 | 54 | 0 | 0.0 | 0.0 | 0.00 | 0.00 | 0.00 | 4 | 1012.0 |
| 20260503012950 | 54 | 0 | 0.0 | 0.0 | 0.00 | 0.00 | 0.00 | 4 | 1011.8 |
| 20260503011448 | 54 | 0 | 0.0 | 0.0 | 0.00 | 0.00 | 0.00 | 4 | 1011.7 |
| 20260503005948 | 54 | 0 | 0.0 | 0.0 | 0.00 | 0.00 | 0.00 | 4 | 1011.5 |
| 20260503004448 | 54 | 0 | 0.0 | 0.0 | 0.00 | 0.00 | 0.00 | 4 | 1011.3 |
| 20260503001450 | 56 | 0 | 0.0 | 0.0 | 0.00 | 0.00 | 0.00 | 3 | 1011.1 |
| 20260502235948 | 57 | 0 | 0.0 | 0.0 | 0.00 | 0.00 | 0.00 | 3 | 1011.1 |
| 20260502234448 | 58 | 0 | 0.0 | 0.0 | 0.00 | 0.00 | 0.00 | 4 | 1011.1 |
| 20260502232949 | 59 | 0 | 0.0 | 0.0 | 0.00 | 0.00 | 0.00 | 3 | 1011.1 |
| 20260502231448 | 60 | 0 | 0.0 | 0.0 | 0.00 | 0.00 | 0.00 | 3 | 1011.1 |
| 20260502225948 | 60 | 0 | 0.0 | 0.0 | 0.00 | 0.00 | 0.00 | 3 | 1010.9 |
| 20260502221449 | 63 | 0 | 0.0 | 0.0 | 0.00 | 0.00 | 0.00 | 3 | 1010.9 |
| 20260502215949 | 61 | 0 | 0.0 | 0.0 | 0.00 | 0.00 | 0.00 | 3 | 1010.9 |
| 20260502214821 | 62 | 0 | 0.0 | 0.0 | 0.00 | 0.00 | 0.00 | 3 | 1010.8 |